Content
SEND FEEDBACK

Daily
Averages
Monthly
Summary
United Kingdom

MARGATE, ENGLAND


Home > Europe > United Kingdom > England
Elevation: 180 feet     Latitude: 51 21N     Longitude: 001 20E

WEATHER
 
SELECT A DAY
Number of Records: 120,091;   Date Range: 1/28/99 - 7/9/14
 
SHARE

PRINT THIS DATA

[ ← Previous Day ]
WEATHER ALMANAC - JANUARY 31, 2013
[ Next Day → ]
[ °C ]   °F
Weather ElementAverageHighLow
Temperature48.3 °F51.8 °F (11:20 am)45 °F (5:50 am)
Dewpoint40.2 °F44.6 °F (8:20 am)35.6 °F (4:20 pm)
Humidity72.3 %93 % (8:20 am)53 % (2:50 pm)
Barometer29.85 in29.91 in (5:50 pm)29.80 in (7:20 am)
Wind Speed21.2 mph29.9 mph (1:50 pm)
Wind Gust40.3 mph (6:50 am)
Weather ElementAverage
Visibility6.4 mi
Wind DirectionWSW (245.8 °)

Weather ElementTotal
Precipitation---
Heating Degree Days16.6 (Base 65)
Averaged from 31 records on January 31, 2013
WEATHER CONDITIONS BREAKOUT
WIND DIRECTION BREAKOUT
WEATHER BY HOUR - JANUARY 31, 2013
[ °C ]   °F
Local TimeTemperatureDewpointHumidityBarometerVisibilityWind DirectionWind SpeedGust SpeedPrecipitationEventsConditions
5:50 AM45.0 °F41.0 °F82 %29.88 in6.0 miSSW (210°)17.3 mphLight Haze
6:20 AM46.4 °F41.0 °F81 %29.83 in5.0 miSSW (210°)21.9 mphPartly Cloudy
6:50 AM46.4 °F42.8 °F87 %29.83 in5.0 miSW (220°)24.2 mph40.3 mphScattered Clouds
7:20 AM46.4 °F42.8 °F87 %29.80 in5.0 miSW (220°)26.5 mphScattered Clouds
7:50 AM46.4 °F42.8 °F87 %29.80 in5.0 miSW (220°)23.0 mphRainLight Rain
8:20 AM46.4 °F44.6 °F93 %29.80 in5.0 miSW (230°)23.0 mph39.1 mphMostly Cloudy
8:50 AM48.2 °F44.6 °F87 %29.80 in6.2 miWSW (240°)23.0 mphScattered Clouds
8:50 AM48.0 °F44.0 °F79 %29.83 in11.0 miWSW (240°)24.2 mphRainRain
9:20 AM48.2 °F42.8 °F82 %29.80 in6.2 miWSW (240°)20.7 mphPartly Cloudy
9:50 AM50.0 °F42.8 °F76 %29.80 in6.2 miSW (230°)20.7 mphPartly Cloudy
10:20 AM50.0 °F42.8 °F76 %29.83 in6.2 miWSW (240°)20.7 mphPartly Cloudy
10:50 AM50.0 °F42.8 °F76 %29.83 in6.2 miWSW (240°)19.6 mphPartly Cloudy
11:20 AM51.8 °F42.8 °F71 %29.83 in6.2 miWSW (240°)23.0 mphScattered Clouds
11:50 AM50.0 °F40.0 °F60 %29.86 in5.0 miWest (270°)24.2 mphMostly Cloudy
11:50 AM50.0 °F41.0 °F71 %29.83 in6.2 miWest (260°)25.3 mphScattered Clouds
12:20 PM50.0 °F42.8 °F76 %29.83 in6.2 miWest (260°)19.6 mphScattered Clouds
12:50 PM51.8 °F41.0 °F67 %29.83 in6.2 miWest (260°)25.3 mphPartly Cloudy
1:20 PM50.0 °F39.2 °F66 %29.83 in6.2 miWest (260°)27.6 mphPartly Cloudy
1:50 PM50.0 °F39.2 °F66 %29.83 in6.2 miWest (270°)29.9 mphPartly Cloudy
2:20 PM50.0 °F39.2 °F66 %29.86 in6.2 miWest (270°)24.2 mphPartly Cloudy
2:50 PM50.0 °F38.0 °F53 %29.88 in9.0 miWest (280°)17.3 mphScattered Clouds
2:50 PM48.2 °F39.2 °F71 %29.86 in6.2 miWest (270°)18.4 mphPartly Cloudy
3:20 PM50.0 °F37.4 °F62 %29.86 in6.2 miWest (260°)19.6 mphPartly Cloudy
3:50 PM48.2 °F37.4 °F66 %29.89 in6.2 miWest (260°)19.6 mphPartly Cloudy
4:20 PM48.2 °F35.6 °F62 %29.89 in6.2 miWest (260°)19.6 mphPartly Cloudy
4:50 PM46.4 °F35.6 °F66 %29.89 in6.2 miWSW (250°)16.1 mphPartly Cloudy
5:20 PM46.4 °F35.6 °F66 %29.89 in6.2 miWSW (240°)15.0 mphPartly Cloudy
5:50 PM47.0 °F36.0 °F54 %29.91 in9.0 miWSW (250°)18.4 mphPartly Cloudy
5:50 PM46.4 °F35.6 °F66 %29.89 inWSW (250°)15.0 mphClear
8:50 PM46.0 °F37.0 °F63 %29.91 in9.0 miWSW (240°)19.6 mphMostly Cloudy
11:50 PM45.0 °F40.0 °F75 %29.88 in7.0 miSW (230°)13.8 mphOvercast
Hourly data recorded from EGMH, located miles away from Margate, England







STORIES FROM OUR PARTNERS